Rockport, TX

5:57 AM CDT on July 21, 2017 (GMT -0500)
Aransas County

Weather History for KRKP - May, 2014

Change the Weather History Date:

Thursday, May 15, 2014

  Actual Average Record
Temperature  
Mean Temperature 68 °F -  
Max Temperature 79 °F 82 °F 95 °F (2008)
Min Temperature 57 °F 70 °F 57 °F (2014)
Cooling Degree Days 3    
Growing Degree Days 18 (Base 50)    
Moisture  
Dew Point 52 °F    
Average Humidity 55    
Maximum Humidity 84    
Minimum Humidity 38    
Precipitation  
Precipitation 0.00 in - - ()
Sea Level Pressure  
Sea Level Pressure 30.26 in    
Wind  
Wind Speed 7 mph (ESE)    
Max Wind Speed 14 mph    
Max Gust Speed 20 mph    
Visibility 10 miles    
Events      
Averages and records for this station are not official NWS values.
T = Trace of Precipitation, MM = Missing Value Source: NWS Daily Summary

Daily Weather History Graph

Daily Weather History Graph

Search for Another Location

Airport or City:

Trip Planner

Search our weather history database for the weather conditions in past years. The results will help you decide how hot, cold, wet, or windy it might be!

Date:

Astronomy

May. 15, 2014 Rise Set
Actual Time 6:38 AM CDT 8:11 PM CDT
Civil Twilight 6:12 AM CDT 8:36 PM CDT
Nautical Twilight 5:42 AM CDT 9:07 PM CDT
Astronomical Twilight 5:10 AM CDT 9:39 PM CDT
Moon 9:20 PM CDT (5/15) 7:25 AM CDT (5/15)
Length of Visible Light 14h 23m
Length of Day
13h 32m
Full, 99% of the Moon is Illuminated
May 15
Full
May 21
Last Quarter
May 28
New
Jun 5
First Quarter
Jun 12
Full

Hourly Weather History & Observations

Time (CDT) Temp. Dew Point Humidity Pressure Visibility Wind Dir Wind Speed Gust Speed Precip Events Conditions
12:53 AM 64.9 °F 48.9 °F 56% 30.27 in 10.0 mi ENE 8.1 mph - N/A   Clear
1:53 AM 64.0 °F 51.1 °F 63% 30.27 in 10.0 mi ENE 6.9 mph - N/A   Clear
2:53 AM 66.0 °F 50.0 °F 56% 30.27 in 10.0 mi East 8.1 mph - N/A   Clear
3:53 AM 64.9 °F 48.9 °F 56% 30.26 in 10.0 mi ENE 6.9 mph - N/A   Clear
4:53 AM 60.1 °F 52.0 °F 75% 30.26 in 10.0 mi ENE 3.5 mph - N/A   Clear
5:53 AM 57.9 °F 52.0 °F 81% 30.27 in 10.0 mi NNE 3.5 mph - N/A   Clear
6:53 AM 57.9 °F 53.1 °F 84% 30.29 in 10.0 mi North 3.5 mph - N/A   Clear
7:53 AM 64.0 °F 55.9 °F 75% 30.31 in 10.0 mi Calm Calm - N/A   Clear
8:53 AM 70.0 °F 53.1 °F 55% 30.32 in 10.0 mi ENE 4.6 mph - N/A   Clear
9:53 AM 72.0 °F 48.0 °F 43% 30.32 in 10.0 mi Variable 4.6 mph - N/A   Clear
10:53 AM 73.9 °F 50.0 °F 43% 30.32 in 10.0 mi SE 9.2 mph - N/A   Clear
11:53 AM 75.9 °F 48.9 °F 38% 30.33 in 10.0 mi SE 8.1 mph - N/A   Clear
12:53 PM 77.0 °F 50.0 °F 39% 30.31 in 10.0 mi Variable 5.8 mph - N/A   Partly Cloudy
2:53 PM 79.0 °F 52.0 °F 39% 30.26 in 10.0 mi SSE 11.5 mph - N/A   Clear
3:53 PM 78.1 °F 52.0 °F 40% 30.22 in 10.0 mi SSE 12.7 mph - N/A   Clear
4:53 PM 75.9 °F 52.0 °F 43% 30.21 in 10.0 mi SSE 11.5 mph 19.6 mph N/A   Clear
5:53 PM 75.0 °F 53.1 °F 46% 30.20 in 10.0 mi SSE 13.8 mph 18.4 mph N/A   Clear
6:53 PM 73.0 °F 53.1 °F 49% 30.19 in 10.0 mi South 9.2 mph - N/A   Clear
7:53 PM 72.0 °F 53.1 °F 51% 30.19 in 10.0 mi South 10.4 mph 17.3 mph N/A   Clear
8:53 PM 70.0 °F 55.0 °F 59% 30.21 in 10.0 mi South 8.1 mph - N/A   Clear
10:53 PM 69.1 °F 54.0 °F 58% 30.22 in 10.0 mi South 6.9 mph - N/A   Clear
11:53 PM 70.0 °F 54.0 °F 57% 30.23 in 10.0 mi South 6.9 mph - N/A   Clear